Terug naar catalogus

ION SCV-017

ActiefWetenschapSSO
NORAD 63230·PAYLOAD·🇮🇹 Italy

Gelanceerd Mar 15, 2025 vanaf Vandenberg Space Force Base

Loading…

Volgende Passages (komende 24 uur)

TLE

VersSource: Space-Track

Epoch: Sep 14, 2026, 16:20 UTC

1 63230U 25052W   26257.68116594  .00003563  00000-0  13052-3 0  9991
2 63230  97.3769 152.0653 0023452  92.7182 267.6743 15.28413477 83709

Volg ION SCV-017 in realtime met AllMySat

Download on the App Store